Year,Month,Day,Hour,Minute,Value (Times are PST for temperature in C)
2008,08,17,00,00,14.00
2008,08,17,00,01,14.00
2008,08,17,00,02,13.90
2008,08,17,00,03,13.90
2008,08,17,00,04,13.90
2008,08,17,00,05,13.90
2008,08,17,00,06,13.80
2008,08,17,00,07,13.80
2008,08,17,00,08,13.80
2008,08,17,00,09,13.70
2008,08,17,00,10,13.70
2008,08,17,00,11,13.70
2008,08,17,00,12,13.60
2008,08,17,00,13,13.60
2008,08,17,00,14,13.60
2008,08,17,00,15,13.50
2008,08,17,00,16,13.50
2008,08,17,00,17,13.40
2008,08,17,00,18,13.40
2008,08,17,00,19,13.40
2008,08,17,00,20,13.40
2008,08,17,00,21,13.40
2008,08,17,00,22,13.40
2008,08,17,00,23,13.40
2008,08,17,00,24,13.40
2008,08,17,00,25,13.40
2008,08,17,00,26,13.30
2008,08,17,00,27,13.30
2008,08,17,00,28,13.30
2008,08,17,00,29,13.30
2008,08,17,00,30,13.30
2008,08,17,00,31,13.30
2008,08,17,00,32,13.30
2008,08,17,00,33,13.30
2008,08,17,00,34,13.30
2008,08,17,00,35,13.30
2008,08,17,00,36,13.30
2008,08,17,00,37,13.30
2008,08,17,00,38,13.20
2008,08,17,00,39,13.20
2008,08,17,00,40,13.20
2008,08,17,00,41,13.20
2008,08,17,00,42,13.20
2008,08,17,00,43,13.20
2008,08,17,00,44,13.20
2008,08,17,00,45,13.20
2008,08,17,00,46,13.20
2008,08,17,00,47,13.20
2008,08,17,00,48,13.20
2008,08,17,00,49,13.20
2008,08,17,00,50,13.20
2008,08,17,00,51,13.20
2008,08,17,00,52,13.20
2008,08,17,00,53,13.30
2008,08,17,00,54,13.30
2008,08,17,00,55,13.30
2008,08,17,00,56,13.30
2008,08,17,00,57,13.30
2008,08,17,00,58,13.30
2008,08,17,00,59,13.30
2008,08,17,01,00,13.30
2008,08,17,01,01,13.30
2008,08,17,01,02,13.30
2008,08,17,01,03,13.30
2008,08,17,01,04,13.30
2008,08,17,01,05,13.30
2008,08,17,01,06,13.30
2008,08,17,01,07,13.30
2008,08,17,01,08,13.30
2008,08,17,01,09,13.30
2008,08,17,01,10,13.30
2008,08,17,01,11,13.30
2008,08,17,01,12,13.30
2008,08,17,01,13,13.30
2008,08,17,01,14,13.30
2008,08,17,01,15,13.30
2008,08,17,01,16,13.30
2008,08,17,01,17,13.40
2008,08,17,01,18,13.40
2008,08,17,01,19,13.40
2008,08,17,01,20,13.40
2008,08,17,01,21,13.40
2008,08,17,01,22,13.40
2008,08,17,01,23,13.50
2008,08,17,01,24,13.50
2008,08,17,01,25,13.60
2008,08,17,01,26,13.60
2008,08,17,01,27,13.60
2008,08,17,01,28,13.60
2008,08,17,01,29,13.70
2008,08,17,01,30,13.70
2008,08,17,01,31,13.80
2008,08,17,01,32,13.80
2008,08,17,01,33,13.80
2008,08,17,01,34,13.90
2008,08,17,01,35,13.90
2008,08,17,01,36,13.90
2008,08,17,01,37,13.90
2008,08,17,01,38,14.00
2008,08,17,01,39,14.00
2008,08,17,01,40,14.10
2008,08,17,01,41,14.10
2008,08,17,01,42,14.20
2008,08,17,01,43,14.20
2008,08,17,01,44,14.20
2008,08,17,01,45,14.30
2008,08,17,01,46,14.30
2008,08,17,01,47,14.30
2008,08,17,01,48,14.30
2008,08,17,01,49,14.40
2008,08,17,01,50,14.40
2008,08,17,01,51,14.40
2008,08,17,01,52,14.50
2008,08,17,01,53,14.50
2008,08,17,01,54,14.50
2008,08,17,01,55,14.60
2008,08,17,01,56,14.60
2008,08,17,01,57,14.60
2008,08,17,01,58,14.60
2008,08,17,01,59,14.60
2008,08,17,02,00,14.70
2008,08,17,02,01,14.70
2008,08,17,02,02,14.80
2008,08,17,02,03,14.80
2008,08,17,02,04,14.80
2008,08,17,02,05,14.80
2008,08,17,02,06,14.80
2008,08,17,02,07,14.90
2008,08,17,02,08,14.90
2008,08,17,02,09,14.90
2008,08,17,02,10,14.90
2008,08,17,02,11,15.00
2008,08,17,02,12,15.00
2008,08,17,02,13,15.00
2008,08,17,02,14,15.00
2008,08,17,02,15,15.00
2008,08,17,02,16,15.00
2008,08,17,02,17,15.00
2008,08,17,02,18,15.00
2008,08,17,02,19,15.00
2008,08,17,02,20,15.00
2008,08,17,02,21,14.90
2008,08,17,02,22,14.80
2008,08,17,02,23,14.80
2008,08,17,02,24,14.80
2008,08,17,02,25,14.70
2008,08,17,02,26,14.70
2008,08,17,02,27,14.70
2008,08,17,02,28,14.60
2008,08,17,02,29,14.60
2008,08,17,02,30,14.50
2008,08,17,02,31,14.50
2008,08,17,02,32,14.40
2008,08,17,02,33,14.40
2008,08,17,02,34,14.40
2008,08,17,02,35,14.30
2008,08,17,02,36,14.30
2008,08,17,02,37,14.20
2008,08,17,02,38,14.20
2008,08,17,02,39,14.10
2008,08,17,02,40,14.10
2008,08,17,02,41,14.00
2008,08,17,02,42,14.00
2008,08,17,02,43,14.00
2008,08,17,02,44,14.00
2008,08,17,02,45,13.90
2008,08,17,02,46,13.90
2008,08,17,02,47,13.90
2008,08,17,02,48,13.90
2008,08,17,02,49,13.90
2008,08,17,02,50,13.90
2008,08,17,02,51,13.90
2008,08,17,02,52,13.90
2008,08,17,02,53,13.90
2008,08,17,02,54,13.90
2008,08,17,02,55,13.90
2008,08,17,02,56,13.90
2008,08,17,02,57,13.90
2008,08,17,02,58,13.90
2008,08,17,02,59,13.90
2008,08,17,03,00,13.90
2008,08,17,03,01,13.90
2008,08,17,03,02,13.90
2008,08,17,03,03,13.80
2008,08,17,03,04,13.80
2008,08,17,03,05,13.80
2008,08,17,03,06,13.80
2008,08,17,03,07,13.80
2008,08,17,03,08,13.80
2008,08,17,03,09,13.70
2008,08,17,03,10,13.70
2008,08,17,03,11,13.70
2008,08,17,03,12,13.70
2008,08,17,03,13,13.60
2008,08,17,03,14,13.60
2008,08,17,03,15,13.60
2008,08,17,03,16,13.60
2008,08,17,03,17,13.60
2008,08,17,03,18,13.60
2008,08,17,03,19,13.50
2008,08,17,03,20,13.50
2008,08,17,03,21,13.50
2008,08,17,03,22,13.50
2008,08,17,03,23,13.50
2008,08,17,03,24,13.50
2008,08,17,03,25,13.50
2008,08,17,03,26,13.50
2008,08,17,03,27,13.50
2008,08,17,03,28,13.50
2008,08,17,03,29,13.40
2008,08,17,03,30,13.50
2008,08,17,03,31,13.50
2008,08,17,03,32,13.40
2008,08,17,03,33,13.40
2008,08,17,03,34,13.40
2008,08,17,03,35,13.40
2008,08,17,03,36,13.40
2008,08,17,03,37,13.40
2008,08,17,03,38,13.40
2008,08,17,03,39,13.30
2008,08,17,03,40,13.30
2008,08,17,03,41,13.30
2008,08,17,03,42,13.30
2008,08,17,03,43,13.30
2008,08,17,03,44,13.30
2008,08,17,03,45,13.30
2008,08,17,03,46,13.20
2008,08,17,03,47,13.20
2008,08,17,03,48,13.20
2008,08,17,03,49,13.20
2008,08,17,03,50,13.20
2008,08,17,03,51,13.20
2008,08,17,03,52,13.20
2008,08,17,03,53,13.20
2008,08,17,03,54,13.30
2008,08,17,03,55,13.30
2008,08,17,03,56,13.30
2008,08,17,03,57,13.30
2008,08,17,03,58,13.30
2008,08,17,03,59,13.30
2008,08,17,04,00,13.30
2008,08,17,04,01,13.30
2008,08,17,04,02,13.30
2008,08,17,04,03,13.30
2008,08,17,04,04,13.30
2008,08,17,04,05,13.40
2008,08,17,04,06,13.40
2008,08,17,04,07,13.40
2008,08,17,04,08,13.40
2008,08,17,04,09,13.50
2008,08,17,04,10,13.50
2008,08,17,04,11,13.50
2008,08,17,04,12,13.60
2008,08,17,04,13,13.60
2008,08,17,04,14,13.60
2008,08,17,04,15,13.60
2008,08,17,04,16,13.60
2008,08,17,04,17,13.60
2008,08,17,04,18,13.60
2008,08,17,04,19,13.70
2008,08,17,04,20,13.70
2008,08,17,04,21,13.70
2008,08,17,04,22,13.70
2008,08,17,04,23,13.70
2008,08,17,04,24,13.70
2008,08,17,04,25,13.70
2008,08,17,04,26,13.80
2008,08,17,04,27,13.80
2008,08,17,04,28,13.80
2008,08,17,04,29,13.80
2008,08,17,04,30,13.80
2008,08,17,04,31,13.80
2008,08,17,04,32,13.80
2008,08,17,04,33,13.80
2008,08,17,04,34,13.90
2008,08,17,04,35,13.90
2008,08,17,04,36,13.90
2008,08,17,04,37,14.00
2008,08,17,04,38,14.00
2008,08,17,04,39,14.10
2008,08,17,04,40,14.10
2008,08,17,04,41,14.10
2008,08,17,04,42,14.10
2008,08,17,04,43,14.10
2008,08,17,04,44,14.10
2008,08,17,04,45,14.10
2008,08,17,04,46,14.10
2008,08,17,04,47,14.10
2008,08,17,04,48,14.10
2008,08,17,04,49,14.10
2008,08,17,04,50,14.10
2008,08,17,04,51,14.00
2008,08,17,04,52,14.00
2008,08,17,04,53,13.90
2008,08,17,04,54,13.90
2008,08,17,04,55,13.80
2008,08,17,04,56,13.80
2008,08,17,04,57,13.70
2008,08,17,04,58,13.60
2008,08,17,04,59,13.50
2008,08,17,05,00,13.50
2008,08,17,05,01,13.40
2008,08,17,05,02,13.30
2008,08,17,05,03,13.20
2008,08,17,05,04,13.00
2008,08,17,05,05,13.00
2008,08,17,05,06,12.90
2008,08,17,05,07,12.80
2008,08,17,05,08,12.70
2008,08,17,05,09,12.70
2008,08,17,05,10,12.60
2008,08,17,05,11,12.60
2008,08,17,05,12,12.50
2008,08,17,05,13,12.50
2008,08,17,05,14,12.40
2008,08,17,05,15,12.40
2008,08,17,05,16,12.40
2008,08,17,05,17,12.40
2008,08,17,05,18,12.40
2008,08,17,05,19,12.40
2008,08,17,05,20,12.40
2008,08,17,05,21,12.40
2008,08,17,05,22,12.50
2008,08,17,05,23,12.50
2008,08,17,05,24,12.60
2008,08,17,05,25,12.60
2008,08,17,05,26,12.70
2008,08,17,05,27,12.80
2008,08,17,05,28,12.90
2008,08,17,05,29,12.90
2008,08,17,05,30,12.90
2008,08,17,05,31,13.00
2008,08,17,05,32,13.00
2008,08,17,05,33,13.10
2008,08,17,05,34,13.20
2008,08,17,05,35,13.20
2008,08,17,05,36,13.20
2008,08,17,05,37,13.30
2008,08,17,05,38,13.40
2008,08,17,05,39,13.40
2008,08,17,05,40,13.50
2008,08,17,05,41,13.60
2008,08,17,05,42,13.70
2008,08,17,05,43,13.70
2008,08,17,05,44,13.80
2008,08,17,05,45,13.80
2008,08,17,05,46,13.80
2008,08,17,05,47,13.90
2008,08,17,05,48,13.90
2008,08,17,05,49,14.00
2008,08,17,05,50,14.00
2008,08,17,05,51,14.10
2008,08,17,05,52,14.20
2008,08,17,05,53,14.30
2008,08,17,05,54,14.30
2008,08,17,05,55,14.40
2008,08,17,05,56,14.40
2008,08,17,05,57,14.40
2008,08,17,05,58,14.40
2008,08,17,05,59,14.30
2008,08,17,06,00,14.30
2008,08,17,06,01,14.30
2008,08,17,06,02,14.20
2008,08,17,06,03,14.10
2008,08,17,06,04,14.00
2008,08,17,06,05,13.80
2008,08,17,06,06,13.70
2008,08,17,06,07,13.60
2008,08,17,06,08,13.60
2008,08,17,06,09,13.50
2008,08,17,06,10,13.40
2008,08,17,06,11,13.40
2008,08,17,06,12,13.30
2008,08,17,06,13,13.20
2008,08,17,06,14,13.00
2008,08,17,06,15,12.90
2008,08,17,06,16,12.80
2008,08,17,06,17,12.70
2008,08,17,06,18,12.60
2008,08,17,06,19,12.50
2008,08,17,06,20,12.50
2008,08,17,06,21,12.40
2008,08,17,06,22,12.30
2008,08,17,06,23,12.30
2008,08,17,06,24,12.20
2008,08,17,06,25,12.20
2008,08,17,06,26,12.10
2008,08,17,06,27,12.10
2008,08,17,06,28,12.10
2008,08,17,06,29,12.00
2008,08,17,06,30,12.00
2008,08,17,06,31,11.90
2008,08,17,06,32,11.90
2008,08,17,06,33,11.90
2008,08,17,06,34,11.90
2008,08,17,06,35,11.90
2008,08,17,06,36,11.90
2008,08,17,06,37,11.90
2008,08,17,06,38,11.90
2008,08,17,06,39,11.90
2008,08,17,06,40,12.00
2008,08,17,06,41,12.00
2008,08,17,06,42,12.00
2008,08,17,06,43,12.00
2008,08,17,06,44,12.00
2008,08,17,06,45,12.00
2008,08,17,06,46,12.10
2008,08,17,06,47,12.10
2008,08,17,06,48,12.10
2008,08,17,06,49,12.10
2008,08,17,06,50,12.10
2008,08,17,06,51,12.10
2008,08,17,06,52,12.20
2008,08,17,06,53,12.20
2008,08,17,06,54,12.20
2008,08,17,06,55,12.30
2008,08,17,06,56,12.30
2008,08,17,06,57,12.30
2008,08,17,06,58,12.40
2008,08,17,06,59,12.40
2008,08,17,07,00,12.40
2008,08,17,07,01,12.50
2008,08,17,07,02,12.50
2008,08,17,07,03,12.60
2008,08,17,07,04,12.60
2008,08,17,07,05,12.60
2008,08,17,07,06,12.60
2008,08,17,07,07,12.60
2008,08,17,07,08,12.60
2008,08,17,07,09,12.60
2008,08,17,07,10,12.60
2008,08,17,07,11,12.60
2008,08,17,07,12,12.70
2008,08,17,07,13,12.70
2008,08,17,07,14,12.70
2008,08,17,07,15,12.80
2008,08,17,07,16,12.80
2008,08,17,07,17,12.80
2008,08,17,07,18,12.80
2008,08,17,07,19,12.80
2008,08,17,07,20,12.90
2008,08,17,07,21,12.90
2008,08,17,07,22,12.90
2008,08,17,07,23,13.00
2008,08,17,07,24,13.00
2008,08,17,07,25,13.00
2008,08,17,07,26,13.00
2008,08,17,07,27,13.00
2008,08,17,07,28,13.00
2008,08,17,07,29,12.90
2008,08,17,07,30,12.80
2008,08,17,07,31,12.80
2008,08,17,07,32,12.70
2008,08,17,07,33,12.60
2008,08,17,07,34,12.50
2008,08,17,07,35,12.50
2008,08,17,07,36,12.40
2008,08,17,07,37,12.40
2008,08,17,07,38,12.40
2008,08,17,07,39,12.30
2008,08,17,07,40,12.30
2008,08,17,07,41,12.20
2008,08,17,07,42,12.20
2008,08,17,07,43,12.20
2008,08,17,07,44,12.20
2008,08,17,07,45,12.20
2008,08,17,07,46,12.20
2008,08,17,07,47,12.20
2008,08,17,07,48,12.20
2008,08,17,07,49,12.20
2008,08,17,07,50,12.20
2008,08,17,07,51,12.20
2008,08,17,07,52,12.10
2008,08,17,07,53,12.10
2008,08,17,07,54,12.10
2008,08,17,07,55,12.10
2008,08,17,07,56,12.10
2008,08,17,07,57,12.10
2008,08,17,07,58,12.20
2008,08,17,07,59,12.20
2008,08,17,08,00,12.20
2008,08,17,08,01,12.20
2008,08,17,08,02,12.20
2008,08,17,08,03,12.20
2008,08,17,08,04,12.20
2008,08,17,08,05,12.20
2008,08,17,08,06,12.20
2008,08,17,08,07,12.30
2008,08,17,08,08,12.30
2008,08,17,08,09,12.30
2008,08,17,08,10,12.40
2008,08,17,08,11,12.40
2008,08,17,08,12,12.50
2008,08,17,08,13,12.60
2008,08,17,08,14,12.70
2008,08,17,08,15,12.70
2008,08,17,08,16,12.90
2008,08,17,08,17,13.00
2008,08,17,08,18,13.00
2008,08,17,08,19,13.10
2008,08,17,08,20,13.30
2008,08,17,08,21,13.40
2008,08,17,08,22,13.50
2008,08,17,08,23,13.70
2008,08,17,08,24,14.00
2008,08,17,08,25,14.20
2008,08,17,08,26,14.50
2008,08,17,08,27,14.80
2008,08,17,08,28,15.00
2008,08,17,08,29,15.10
2008,08,17,08,30,15.40
2008,08,17,08,31,15.70
2008,08,17,08,32,15.90
2008,08,17,08,33,16.10
2008,08,17,08,34,16.30
2008,08,17,08,35,16.50
2008,08,17,08,36,16.60
2008,08,17,08,37,16.70
2008,08,17,08,38,16.80
2008,08,17,08,39,17.00
2008,08,17,08,40,17.10
2008,08,17,08,41,17.20
2008,08,17,08,42,17.20
2008,08,17,08,43,17.30
2008,08,17,08,44,17.40
2008,08,17,08,45,17.50
2008,08,17,08,46,17.60
2008,08,17,08,47,17.70
2008,08,17,08,48,17.80
2008,08,17,08,49,17.90
2008,08,17,08,50,17.90
2008,08,17,08,51,18.00
2008,08,17,08,52,18.20
2008,08,17,08,53,18.20
2008,08,17,08,54,18.30
2008,08,17,08,55,18.40
2008,08,17,08,56,18.50
2008,08,17,08,57,18.70
2008,08,17,08,58,18.80
2008,08,17,08,59,18.90
2008,08,17,09,00,19.00
2008,08,17,09,01,19.10
2008,08,17,09,02,19.20
2008,08,17,09,03,19.30
2008,08,17,09,04,19.40
2008,08,17,09,05,19.50
2008,08,17,09,06,19.60
2008,08,17,09,07,19.60
2008,08,17,09,08,19.70
2008,08,17,09,09,19.80
2008,08,17,09,10,19.80
2008,08,17,09,11,19.90
2008,08,17,09,12,19.90
2008,08,17,09,13,20.00
2008,08,17,09,14,20.00
2008,08,17,09,15,20.00
2008,08,17,09,16,19.90
2008,08,17,09,17,19.90
2008,08,17,09,18,19.80
2008,08,17,09,19,19.80
2008,08,17,09,20,19.70
2008,08,17,09,21,19.70
2008,08,17,09,22,19.60
2008,08,17,09,23,19.60
2008,08,17,09,24,19.50
2008,08,17,09,25,19.50
2008,08,17,09,26,19.40
2008,08,17,09,27,19.40
2008,08,17,09,28,19.40
2008,08,17,09,29,19.30
2008,08,17,09,30,19.30
2008,08,17,09,31,19.30
2008,08,17,09,32,19.30
2008,08,17,09,33,19.30
2008,08,17,09,34,19.30
2008,08,17,09,35,19.40
2008,08,17,09,36,19.50
2008,08,17,09,37,19.50
2008,08,17,09,38,19.60
2008,08,17,09,39,19.60
2008,08,17,09,40,19.70
2008,08,17,09,41,19.70
2008,08,17,09,42,19.70
2008,08,17,09,43,19.70
2008,08,17,09,44,19.80
2008,08,17,09,45,19.90
2008,08,17,09,46,19.90
2008,08,17,09,47,20.00
2008,08,17,09,48,20.10
2008,08,17,09,49,20.10
2008,08,17,09,50,20.20
2008,08,17,09,51,20.30
2008,08,17,09,52,20.30
2008,08,17,09,53,20.40
2008,08,17,09,54,20.50
2008,08,17,09,55,20.60
2008,08,17,09,56,20.70
2008,08,17,09,57,20.70
2008,08,17,09,58,20.80
2008,08,17,09,59,20.90
2008,08,17,10,00,21.00
2008,08,17,10,01,21.10
2008,08,17,10,02,21.10
2008,08,17,10,03,21.20
2008,08,17,10,04,21.20
2008,08,17,10,05,21.20
2008,08,17,10,06,21.20
2008,08,17,10,07,21.30
2008,08,17,10,08,21.30
2008,08,17,10,09,21.30
2008,08,17,10,10,21.30
2008,08,17,10,11,21.30
2008,08,17,10,12,21.40
2008,08,17,10,13,21.50
2008,08,17,10,14,21.60
2008,08,17,10,15,21.70
2008,08,17,10,16,21.80
2008,08,17,10,17,21.90
2008,08,17,10,18,21.90
2008,08,17,10,19,21.90
2008,08,17,10,20,21.80
2008,08,17,10,21,21.80
2008,08,17,10,22,21.80
2008,08,17,10,23,21.80
2008,08,17,10,24,21.80
2008,08,17,10,25,21.70
2008,08,17,10,26,21.70
2008,08,17,10,27,21.80
2008,08,17,10,28,21.80
2008,08,17,10,29,21.90
2008,08,17,10,30,21.90
2008,08,17,10,31,21.90
2008,08,17,10,32,22.00
2008,08,17,10,33,22.00
2008,08,17,10,34,21.90
2008,08,17,10,35,21.90
2008,08,17,10,36,21.90
2008,08,17,10,37,21.90
2008,08,17,10,38,22.00
2008,08,17,10,39,22.00
2008,08,17,10,40,22.00
2008,08,17,10,41,22.10
2008,08,17,10,42,22.10
2008,08,17,10,43,22.20
2008,08,17,10,44,22.30
2008,08,17,10,45,22.50
2008,08,17,10,46,22.60
2008,08,17,10,47,22.80
2008,08,17,10,48,22.80
2008,08,17,10,49,22.80
2008,08,17,10,50,22.80
2008,08,17,10,51,22.80
2008,08,17,10,52,22.90
2008,08,17,10,53,22.90
2008,08,17,10,54,22.90
2008,08,17,10,55,22.90
2008,08,17,10,56,22.90
2008,08,17,10,57,22.90
2008,08,17,10,58,22.90
2008,08,17,10,59,23.00
2008,08,17,11,00,23.00
2008,08,17,11,01,23.00
2008,08,17,11,02,23.00
2008,08,17,11,03,23.10
2008,08,17,11,04,23.10
2008,08,17,11,05,23.00
2008,08,17,11,06,22.90
2008,08,17,11,07,22.90
2008,08,17,11,08,22.90
2008,08,17,11,09,22.90
2008,08,17,11,10,22.90
2008,08,17,11,11,22.90
2008,08,17,11,12,22.80
2008,08,17,11,13,22.80
2008,08,17,11,14,22.80
2008,08,17,11,15,22.80
2008,08,17,11,16,22.70
2008,08,17,11,17,22.70
2008,08,17,11,18,22.70
2008,08,17,11,19,22.70
2008,08,17,11,20,22.70
2008,08,17,11,21,22.60
2008,08,17,11,22,22.60
2008,08,17,11,23,22.50
2008,08,17,11,24,22.40
2008,08,17,11,25,22.20
2008,08,17,11,26,22.10
2008,08,17,11,27,21.90
2008,08,17,11,28,21.70
2008,08,17,11,29,21.50
2008,08,17,11,30,21.30
2008,08,17,11,31,21.30
2008,08,17,11,32,21.30
2008,08,17,11,33,21.20
2008,08,17,11,34,21.10
2008,08,17,11,35,21.10
2008,08,17,11,36,21.00
2008,08,17,11,37,21.00
2008,08,17,11,38,21.00
2008,08,17,11,39,21.00
2008,08,17,11,40,21.10
2008,08,17,11,41,21.20
2008,08,17,11,42,21.30
2008,08,17,11,43,21.40
2008,08,17,11,44,21.50
2008,08,17,11,45,21.50
2008,08,17,11,46,21.50
2008,08,17,11,47,21.50
2008,08,17,11,48,21.60
2008,08,17,11,49,21.60
2008,08,17,11,50,21.60
2008,08,17,11,51,21.60
2008,08,17,11,52,21.60
2008,08,17,11,53,21.60
2008,08,17,11,54,21.70
2008,08,17,11,55,21.70
2008,08,17,11,56,21.80
2008,08,17,11,57,21.80
2008,08,17,11,58,21.80
2008,08,17,11,59,21.90
2008,08,17,12,00,22.00
2008,08,17,12,01,22.10
2008,08,17,12,02,22.20
2008,08,17,12,03,22.30
2008,08,17,12,04,22.30
2008,08,17,12,05,22.30
2008,08,17,12,06,22.30
2008,08,17,12,07,22.30
2008,08,17,12,08,22.30
2008,08,17,12,09,22.40
2008,08,17,12,10,22.40
2008,08,17,12,11,22.40
2008,08,17,12,12,22.50
2008,08,17,12,13,22.60
2008,08,17,12,14,22.80
2008,08,17,12,15,23.00
2008,08,17,12,16,23.10
2008,08,17,12,17,23.30
2008,08,17,12,18,23.20
2008,08,17,12,19,23.20
2008,08,17,12,20,23.20
2008,08,17,12,21,23.20
2008,08,17,12,22,23.30
2008,08,17,12,23,23.30
2008,08,17,12,24,23.30
2008,08,17,12,25,23.30
2008,08,17,12,26,23.20
2008,08,17,12,27,23.20
2008,08,17,12,28,23.10
2008,08,17,12,29,23.10
2008,08,17,12,30,23.00
2008,08,17,12,31,23.00
2008,08,17,12,32,23.00
2008,08,17,12,33,23.00
2008,08,17,12,34,23.10
2008,08,17,12,35,23.10
2008,08,17,12,36,23.20
2008,08,17,12,37,23.30
2008,08,17,12,38,23.40
2008,08,17,12,39,23.50
2008,08,17,12,40,23.60
2008,08,17,12,41,23.60
2008,08,17,12,42,23.50
2008,08,17,12,43,23.30
2008,08,17,12,44,23.00
2008,08,17,12,45,22.70
2008,08,17,12,46,22.50
2008,08,17,12,47,22.30
2008,08,17,12,48,22.20
2008,08,17,12,49,22.10
2008,08,17,12,50,22.00
2008,08,17,12,51,21.80
2008,08,17,12,52,21.80
2008,08,17,12,53,21.60
2008,08,17,12,54,21.60
2008,08,17,12,55,21.50
2008,08,17,12,56,21.60
2008,08,17,12,57,21.70
2008,08,17,12,58,21.80
2008,08,17,12,59,21.90
2008,08,17,13,00,22.00
2008,08,17,13,01,22.10
2008,08,17,13,02,22.10
2008,08,17,13,03,22.10
2008,08,17,13,04,22.10
2008,08,17,13,05,22.20
2008,08,17,13,06,22.20
2008,08,17,13,07,22.20
2008,08,17,13,08,22.20
2008,08,17,13,09,22.10
2008,08,17,13,10,22.00
2008,08,17,13,11,21.90
2008,08,17,13,12,21.90
2008,08,17,13,13,21.80
2008,08,17,13,14,21.80
2008,08,17,13,15,21.80
2008,08,17,13,16,21.80
2008,08,17,13,17,21.80
2008,08,17,13,18,21.80
2008,08,17,13,19,21.80
2008,08,17,13,20,21.80
2008,08,17,13,21,21.80
2008,08,17,13,22,21.80
2008,08,17,13,23,21.80
2008,08,17,13,24,21.70
2008,08,17,13,25,21.70
2008,08,17,13,26,21.60
2008,08,17,13,27,21.60
2008,08,17,13,28,21.50
2008,08,17,13,29,21.50
2008,08,17,13,30,21.50
2008,08,17,13,31,21.40
2008,08,17,13,32,21.50
2008,08,17,13,33,21.40
2008,08,17,13,34,21.40
2008,08,17,13,35,21.40
2008,08,17,13,36,21.40
2008,08,17,13,37,21.40
2008,08,17,13,38,21.40
2008,08,17,13,39,21.40
2008,08,17,13,40,21.40
2008,08,17,13,41,21.40
2008,08,17,13,42,21.40
2008,08,17,13,43,21.30
2008,08,17,13,44,21.30
2008,08,17,13,45,21.30
2008,08,17,13,46,21.20
2008,08,17,13,47,21.20
2008,08,17,13,48,21.10
2008,08,17,13,49,21.10
2008,08,17,13,50,21.10
2008,08,17,13,51,21.10
2008,08,17,13,52,21.10
2008,08,17,13,53,21.10
2008,08,17,13,54,21.10
2008,08,17,13,55,21.10
2008,08,17,13,56,21.20
2008,08,17,13,57,21.20
2008,08,17,13,58,21.30
2008,08,17,13,59,21.30
2008,08,17,14,00,21.30
2008,08,17,14,01,21.30
2008,08,17,14,02,21.40
2008,08,17,14,03,21.40
2008,08,17,14,04,21.40
2008,08,17,14,05,21.40
2008,08,17,14,06,21.40
2008,08,17,14,07,21.40
2008,08,17,14,08,21.40
2008,08,17,14,09,21.50
2008,08,17,14,10,21.60
2008,08,17,14,11,21.60
2008,08,17,14,12,21.70
2008,08,17,14,13,21.80
2008,08,17,14,14,21.90
2008,08,17,14,15,21.90
2008,08,17,14,16,22.10
2008,08,17,14,17,22.20
2008,08,17,14,18,22.20
2008,08,17,14,19,22.20
2008,08,17,14,20,22.20
2008,08,17,14,21,22.20
2008,08,17,14,22,22.20
2008,08,17,14,23,22.20
2008,08,17,14,24,22.30
2008,08,17,14,25,22.30
2008,08,17,14,26,22.30
2008,08,17,14,27,22.40
2008,08,17,14,28,22.40
2008,08,17,14,29,22.40
2008,08,17,14,30,22.50
2008,08,17,14,31,22.60
2008,08,17,14,32,22.70
2008,08,17,14,33,22.70
2008,08,17,14,34,22.80
2008,08,17,14,35,22.80
2008,08,17,14,36,22.90
2008,08,17,14,37,23.00
2008,08,17,14,38,23.10
2008,08,17,14,39,23.20
2008,08,17,14,40,23.30
2008,08,17,14,41,23.40
2008,08,17,14,42,23.40
2008,08,17,14,43,23.30
2008,08,17,14,44,23.30
2008,08,17,14,45,23.30
2008,08,17,14,46,23.30
2008,08,17,14,47,23.20
2008,08,17,14,48,23.20
2008,08,17,14,49,23.20
2008,08,17,14,50,23.20
2008,08,17,14,51,23.20
2008,08,17,14,52,23.10
2008,08,17,14,53,23.10
2008,08,17,14,54,23.10
2008,08,17,14,55,23.10
2008,08,17,14,56,23.00
2008,08,17,14,57,23.00
2008,08,17,14,58,22.80
2008,08,17,14,59,22.80
2008,08,17,15,00,22.80
2008,08,17,15,01,22.80
2008,08,17,15,02,22.80
2008,08,17,15,03,22.80
2008,08,17,15,04,22.80
2008,08,17,15,05,22.60
2008,08,17,15,06,22.50
2008,08,17,15,07,22.30
2008,08,17,15,08,22.20
2008,08,17,15,09,22.10
2008,08,17,15,10,22.10
2008,08,17,15,11,22.00
2008,08,17,15,12,21.80
2008,08,17,15,13,21.70
2008,08,17,15,14,21.60
2008,08,17,15,15,21.40
2008,08,17,15,16,21.40
2008,08,17,15,17,21.30
2008,08,17,15,18,21.20
2008,08,17,15,19,21.10
2008,08,17,15,20,21.00
2008,08,17,15,21,20.80
2008,08,17,15,22,20.80
2008,08,17,15,23,20.70
2008,08,17,15,24,20.70
2008,08,17,15,25,20.60
2008,08,17,15,26,20.60
2008,08,17,15,27,20.50
2008,08,17,15,28,20.50
2008,08,17,15,29,20.50
2008,08,17,15,30,20.40
2008,08,17,15,31,20.30
2008,08,17,15,32,20.30
2008,08,17,15,33,20.20
2008,08,17,15,34,20.10
2008,08,17,15,35,20.00
2008,08,17,15,36,19.90
2008,08,17,15,37,19.90
2008,08,17,15,38,19.80
2008,08,17,15,39,19.80
2008,08,17,15,40,19.70
2008,08,17,15,41,19.70
2008,08,17,15,42,19.60
2008,08,17,15,43,19.50
2008,08,17,15,44,19.40
2008,08,17,15,45,19.40
2008,08,17,15,46,19.40
2008,08,17,15,47,19.40
2008,08,17,15,48,19.40
2008,08,17,15,49,19.50
2008,08,17,15,50,19.50
2008,08,17,15,51,19.50
2008,08,17,15,52,19.60
2008,08,17,15,53,19.70
2008,08,17,15,54,19.80
2008,08,17,15,55,19.90
2008,08,17,15,56,20.00
2008,08,17,15,57,20.20
2008,08,17,15,58,20.30
2008,08,17,15,59,20.50
2008,08,17,16,00,20.60
2008,08,17,16,01,20.80
2008,08,17,16,02,20.90
2008,08,17,16,03,21.00
2008,08,17,16,04,21.10
2008,08,17,16,05,21.20
2008,08,17,16,06,21.30
2008,08,17,16,07,21.30
2008,08,17,16,08,21.30
2008,08,17,16,09,21.40
2008,08,17,16,10,21.50
2008,08,17,16,11,21.60
2008,08,17,16,12,21.70
2008,08,17,16,13,21.80
2008,08,17,16,14,21.80
2008,08,17,16,15,21.90
2008,08,17,16,16,22.00
2008,08,17,16,17,22.00
2008,08,17,16,18,22.10
2008,08,17,16,19,22.20
2008,08,17,16,20,22.20
2008,08,17,16,21,22.30
2008,08,17,16,22,22.30
2008,08,17,16,23,22.40
2008,08,17,16,24,22.40
2008,08,17,16,25,22.50
2008,08,17,16,26,22.50
2008,08,17,16,27,22.60
2008,08,17,16,28,22.60
2008,08,17,16,29,22.50
2008,08,17,16,30,22.50
2008,08,17,16,31,22.40
2008,08,17,16,32,22.30
2008,08,17,16,33,22.20
2008,08,17,16,34,22.10
2008,08,17,16,35,22.00
2008,08,17,16,36,21.80
2008,08,17,16,37,21.80
2008,08,17,16,38,21.70
2008,08,17,16,39,21.60
2008,08,17,16,40,21.50
2008,08,17,16,41,21.40
2008,08,17,16,42,21.40
2008,08,17,16,43,21.30
2008,08,17,16,44,21.30
2008,08,17,16,45,21.20
2008,08,17,16,46,21.20
2008,08,17,16,47,21.20
2008,08,17,16,48,21.10
2008,08,17,16,49,21.10
2008,08,17,16,50,21.10
2008,08,17,16,51,21.00
2008,08,17,16,52,21.00
2008,08,17,16,53,21.00
2008,08,17,16,54,21.00
2008,08,17,16,55,21.00
2008,08,17,16,56,21.00
2008,08,17,16,57,20.90
2008,08,17,16,58,20.90
2008,08,17,16,59,20.90
2008,08,17,17,00,20.90
2008,08,17,17,01,20.90
2008,08,17,17,02,20.80
2008,08,17,17,03,20.80
2008,08,17,17,04,20.80
2008,08,17,17,05,20.70
2008,08,17,17,06,20.60
2008,08,17,17,07,20.50
2008,08,17,17,08,20.40
2008,08,17,17,09,20.30
2008,08,17,17,10,20.30
2008,08,17,17,11,20.20
2008,08,17,17,12,20.10
2008,08,17,17,13,20.00
2008,08,17,17,14,20.00
2008,08,17,17,15,19.90
2008,08,17,17,16,20.00
2008,08,17,17,17,20.00
2008,08,17,17,18,20.10
2008,08,17,17,19,20.20